Location: Burland Observatory
(39.4088°N, 105.4217°W)
Time: 19:11:41
(UTC-07:00)

SR - Visible Passes

Search period start: 13 December 2019 00:00
Search period end: 23 December 2019 00:00
Orbit: 573 x 882 km, 66.7° (Epoch: 13 December)

Date Brightness Start Highest point End Pass type
(mag) Time Alt. Az. Time Alt. Az. Time Alt. Az.
13 Dec ? 17:32:13 10° NNW 17:38:04 73° ENE 17:43:32 10° SE visible
13 Dec ? 19:16:12 10° WNW 19:19:25 15° WSW 19:22:31 10° SW visible
14 Dec ? 18:25:11 10° NW 18:30:11 31° WSW 18:34:54 10° S visible
15 Dec ? 17:35:03 10° NW 17:40:46 63° WSW 17:46:06 10° SSE visible
16 Dec ? 06:24:00 10° SE 06:27:03 15° ESE 06:30:11 10° ENE visible
16 Dec ? 18:29:06 10° WNW 18:32:31 16° WSW 18:35:48 10° SW visible
17 Dec ? 17:38:12 10° NW 17:43:17 33° WSW 17:48:03 10° S visible
18 Dec ? 06:24:43 10° SSE 06:29:22 29° ESE 06:34:16 10° NE visible
19 Dec ? 05:37:21 10° SE 05:40:09 14° ESE 05:43:03 10° ENE visible
19 Dec ? 17:42:01 10° WNW 17:45:37 17° WSW 17:49:04 10° SW visible
20 Dec ? 06:26:31 10° S 06:31:50 54° ESE 06:37:31 10° NE visible
21 Dec ? 05:37:53 10° SSE 05:42:27 27° ESE 05:47:16 10° NE visible
22 Dec ? 04:50:43 10° SE 04:53:16 13° ESE 04:55:53 10° ENE visible
22 Dec ? 06:28:57 10° SSW 06:34:29 83° WNW 06:40:24 10° NNE visible
